Location: Maiden
(35.5760°N, 81.2120°W)
Time: 20:43:45
(UTC-05:00)

NOSS 3-1 (C) - Pass Details

Date: 14 June 2018
Orbit: 789 x 1420 km, 63.4° (Epoch: 10 December)

Event Time Altitude Azimuth Distance (km) Brightness Sun altitude
Rises 21:46:45 0° 227° (SW) 3,296 6.4 -11.7°
Reaches altitude 10° 21:49:09 10° 232° (SW) 2,402 5.7 -12.0°
Maximum altitude 21:54:27 49° 307° (NW) 1,120 4.4 -12.9°
Drops below altitude 10° 22:00:26 10° 22° (NNE) 2,704 6.1 -13.8°
Sets 22:03:18 0° 28° (NNE) 3,753 6.8 -14.2°
